Find Starlink 30587

NORAD ID: 58064 Int'l Des: 2023-158 Owner: SPXS Country: US Constellation: starlink operational
LEOCIRCULAR

Current View

Loading 3D Globe...

About Starlink 30587

Starlink 30587 (NORAD 58064) is a starlink constellation satellite (v2 mini) launched Oct 13, 2023 by SPXS of US. It operates in LEO, CIRCULAR orbit with a mass of 730.00 kg.

Upcoming Passes

Passes for default location (London). Set your location on the main map for personalized predictions.

Altitude History

Loading altitude history...

Two-Line Element Set

1 58064U 23158P 26234.84026001 .00003901 00000-0 15110-3 0 9994
2 58064 43.0000 168.4513 0001089 276.0217 84.0510 15.27605131158983
Epoch: Aug 22, 2026 • Age: 29 hours

Current Status

Altitude 484.1 km
Apogee / Perigee N/A
Velocity 7.63 km/s
Sub-Earth Point 29.36°N, 42.49°W
Launch Date Oct 13, 2023
Age 2.8 years
Type internet

Technical Details

Classification Payload
Mass 730.00 kg
Dry Mass 700.00 kg
Total Mass 730.00 kg
Length 0.30 m
Diameter 4.10 m
Span 29.00 m
Shape Box + pan
Manufacturer SPXS
Bus Type Starlink V2M
Phase Status In Orbit
Owner/State SPXS/US

Most Searched